Location: Vinland
(47.7731°N, 122.6974°W)
Time: 17:55:29
(UTC+00:00)

Vanguard 1 Rocket - Pass Details

Date: 24 March 2023
Orbit: 654 x 4221 km, 34.3° (Epoch: 29 May)

Event Time Altitude Azimuth Distance (km) Brightness Sun altitude
Exits shadow 12:29:13 20° 231° (SW) 2,991 9.4 -16.6°
Maximum altitude 12:31:00 21° 216° (SW) 2,710 9.3 -16.4°
Drops below altitude 10° 12:36:07 10° 168° (SSE) 2,861 9.9 -15.5°
Sets 12:38:54 0° 152° (SSE) 3,501 10.5 -15.1°
